This demonstration page uses our WeatherBlox Daily Observations layout. Learn more.

41.55636, -103.73856

Hourly Observations for January 4, 2020

Temp ( °F °C ) Dew Point ( °F °C ) Humidity (%) Winds ( mph kmh ) Pressure ( in mb ) Visibility ( mi km ) Precip ( " mm )
12:58 am 00:58 Cloudy 37 2.8 27 -2.6 68 68 NW 13 20 30.15 1021 10 16.0934 0 0
1:58 am 01:58 Mostly Cloudy 36 2.3 28 -2.5 71 71 NW 12 19 30.21 1023 10 16.0934 0 0
2:58 am 02:58 Mostly Cloudy 34 1.2 27 -2.8 75 75 N 3 6 30.24 1024 10 16.0934 0 0
3:58 am 03:58 Mostly Cloudy 34 1.1 25 -3.9 70 70 NNW 6 9 30.22 1023 10 16.0934 0 0
4:58 am 04:58 Partly Cloudy 35 1.4 24 -4.4 66 66 NNW 3 6 30.22 1023 10 16.0934 0 0
5:58 am 05:58 Clear 31 -0.7 24 -4.3 77 77 W 7 11 30.23 1024 10 16.0934 0 0
6:58 am 06:58 Clear 32 -0.2 24 -4.4 74 74 W 10 17 30.22 1023 10 16.0934 0 0
7:58 am 07:58 Clear 30 -1.1 23 -5.1 75 75 W 7 11 30.2 1023 10 16.0934 0 0
8:58 am 08:58 Clear 32 -0.1 23 -4.8 71 71 W 10 17 30.19 1022 10 16.0934 0 0
9:58 am 09:58 Clear 32 0.1 23 -4.8 70 70 W 12 19 30.18 1022 10 16.0934 0 0
10:58 am 10:58 Clear 34 1 23 -5 65 65 W 14 22 30.17 1022 10 16.0934 0 0
11:58 am 11:58 Mostly Cloudy 34 1.2 24 -4.5 66 66 W 16 26 30.15 1021 10 16.0934 0 0
12:58 pm 12:58 Clear 30 -0.9 22 -5.3 72 72 W 9 15 30.16 1021 10 16.0934 0 0
1:58 pm 13:58 Clear 33 0.8 23 -5.2 65 65 W 13 20 30.15 1021 10 16.0934 0 0
2:58 pm 14:58 Sunny 38 3.6 23 -4.9 54 54 W 15 24 30.14 1021 10 16.0934 0 0
3:58 pm 15:58 Sunny 40 4.6 25 -4.1 54 54 WNW 13 20 30.13 1020 10 16.0934 0 0
4:58 pm 16:58 Sunny 43 6.1 25 -3.7 50 50 W 13 20 30.12 1020 10 16.0934 0 0
5:58 pm 17:58 Sunny 47 8.1 25 -4.1 42 42 WNW 16 26 30.09 1019 10 16.0934 0 0
6:58 pm 18:58 Sunny 50 10 24 -4.2 37 37 W 10 17 30.04 1017 10 16.0934 0 0
7:58 pm 19:58 Sunny 52 11.2 26 -3.5 36 36 WSW 6 9 29.98 1015 10 16.0934 0 0
8:58 pm 20:58 Sunny 54 12.3 26 -3.6 33 33 WSW 10 17 29.95 1014 10 16.0934 0 0
9:58 pm 21:58 Sunny 49 9.4 28 -2.4 44 44 WSW 8 13 29.98 1015 10 16.0934 0 0
10:58 pm 22:58 Sunny 52 11 29 -1.8 41 41 W 6 9 29.98 1015 10 16.0934 0 0
11:58 pm 23:58 Clear 46 7.6 28 -2.2 50 50 WSW 6 9 29.99 1016 10 16.0934 0 0

Powered by AerisWeather